Weather History for OTBD - September, 2010

Change the Weather History Date:

Wednesday, September 22, 2010

  Actual Average Record
Temperature  
Mean Temperature 90 °F -  
Max Temperature 98 °F 97 °F 110 °F (2013)
Min Temperature 82 °F 76 °F 78 °F (1996)
Cooling Degree Days 25    
Growing Degree Days 40 (Base 50)    
Moisture  
Dew Point 77 °F    
Average Humidity 60    
Maximum Humidity 74    
Minimum Humidity 44    
Precipitation  
Precipitation 0.00 in 0.00 in - ()
Sea Level Pressure  
Sea Level Pressure 29.81 in    
Wind  
Wind Speed 5 mph ()    
Max Wind Speed 14 mph    
Max Gust Speed -    
Visibility 5.4 miles    
Events      
Averages and records for this station are not official NWS values.
T = Trace of Precipitation, MM = Missing Value Source: Averaged Metar Reports

Daily Weather History Graph

Daily Weather History Graph

Search for Another Location

Airport or City:

Trip Planner

Search our weather history database for the weather conditions in past years. The results will help you decide how hot, cold, wet, or windy it might be!

Date:

Astronomy

Sep. 22, 2010 Rise Set
Actual Time 5:22 AM AST 5:30 PM AST
Civil Twilight 4:59 AM AST 5:53 PM AST
Nautical Twilight 4:32 AM AST 6:20 PM AST
Astronomical Twilight 4:05 AM AST 6:46 PM AST
Moon 4:45 PM AST (9/22) 4:21 AM AST (9/22)
Length of Visible Light 12h 54m
Length of Day
12h 08m
Waxing Gibbous, 99% of the Moon is Illuminated
Sep 22
Waxing Gibbous
Sep 23
Full
Oct 1
Last Quarter
Oct 7
New
Oct 15
First Quarter

Hourly Weather History & Observations

Time (AST) Temp. Heat Index Dew Point Humidity Pressure Visibility Wind Dir Wind Speed Gust Speed Precip Events Conditions
12:00 AM 89.6 °F 102.2 °F 77.0 °F 66% 29.77 in - NNE 4.6 mph - N/A   Clear
1:00 AM 89.6 °F 102.2 °F 77.0 °F 66% 29.77 in - NNE 5.8 mph - N/A   Clear
2:00 AM 89.6 °F 102.2 °F 77.0 °F 66% 29.77 in - North 5.8 mph - N/A   Clear
3:00 AM 88 °F - 78 °F 65% 29.78 in 6 mi 2.3 mph - -  
4:00 AM 86.0 °F 96.9 °F 77.0 °F 74% 29.77 in - SW 4.6 mph - N/A   Clear
5:00 AM 84.2 °F 92.3 °F 75.2 °F 74% 29.80 in 5.0 mi South 3.5 mph - N/A   Unknown
6:00 AM 84.2 °F 92.3 °F 75.2 °F 74% 29.83 in 3.7 mi South 4.6 mph - N/A   Unknown
7:00 AM 87.8 °F 99.7 °F 77.0 °F 70% 29.86 in 4.3 mi SW 3.5 mph - N/A   Unknown
8:00 AM 91.4 °F 107.2 °F 78.8 °F 66% 29.86 in 5.0 mi Variable 2.3 mph - N/A   Partly Cloudy
9:00 AM 93 °F - 78 °F 54% 29.88 in 6 mi SE 6.9 mph - -   Haze
9:00 AM 93.2 °F 110.2 °F 78.8 °F 63% 29.86 in 5.6 mi SE 6.9 mph - N/A   Partly Cloudy
10:00 AM 95.0 °F 112.2 °F 78.8 °F 59% 29.86 in 6.2 mi South 6.9 mph - N/A   Partly Cloudy
11:00 AM 96.8 °F 114.8 °F 78.8 °F 56% 29.83 in 6.2 mi ESE 6.9 mph - N/A   Partly Cloudy
12:00 PM 96.8 °F 114.8 °F 78.8 °F 56% 29.80 in 6.2 mi ESE 13.8 mph - N/A   Partly Cloudy
1:00 PM 96.8 °F 118.6 °F 80.6 °F 60% 29.80 in 6.2 mi East 13.8 mph - N/A   Partly Cloudy
2:00 PM 96.8 °F 112.2 °F 77.0 °F 53% 29.80 in 5.0 mi East 12.7 mph - N/A   Unknown
3:00 PM 97 °F - 78 °F 46% 29.80 in 5 mi ESE 9.2 mph - -   Haze
3:00 PM 96.8 °F 114.8 °F 78.8 °F 56% 29.80 in 5.0 mi ESE 9.2 mph - N/A   Unknown
4:00 PM 96.8 °F 105.1 °F 71.6 °F 44% 29.80 in 5.0 mi ESE 8.1 mph - N/A   Partly Cloudy
5:00 PM 95.0 °F 107.4 °F 75.2 °F 53% 29.80 in 5.0 mi ESE 8.1 mph - N/A   Unknown
6:00 PM 93.2 °F 102.4 °F 73.4 °F 52% 29.80 in 5.0 mi East 4.6 mph - N/A   Unknown
7:00 PM 93.2 °F 107.2 °F 77.0 °F 59% 29.80 in 5.0 mi East 3.5 mph - N/A   Unknown
8:00 PM 93.2 °F 105.0 °F 75.2 °F 56% 29.83 in 5.6 mi East 3.5 mph - N/A   Unknown
9:00 PM 92 °F - 74 °F 48% 29.83 in 6 mi 2.3 mph - -  
9:00 PM 91.4 °F 102.5 °F 75.2 °F 59% 29.83 in - Variable 2.3 mph - N/A   Clear
10:00 PM 91.4 °F 102.5 °F 75.2 °F 59% 29.80 in - Variable 2.3 mph - N/A   Clear
11:00 PM 91.4 °F 100.1 °F 73.4 °F 55% 29.80 in - ENE 3.5 mph - N/A   Clear